Location: Heiligenberg
(48.5381°N, 7.3897°E)
Time: 23:55:49
(UTC+00:00)

Lacrosse 5 - Pass Details

Date: 26 May 2022
Orbit: 714 x 724 km, 57.0° (Epoch: 09 March)

Event Time Altitude Azimuth Distance (km) Brightness Sun altitude
Exits shadow 02:37:42 - 249° (WSW) 2,386 4.0 -8.5°
Reaches altitude 10° 02:38:09 10° 250° (WSW) 2,213 3.8 -8.4°
Maximum altitude 02:43:12 61° 331° (NNW) 825 2.3 -7.8°
Drops below altitude 10° 02:48:16 10° 52° (NE) 2,216 6.2 -7.2°
Sets 02:50:41 0° 56° (NE) 3,137 7.4 -6.9°
